Weather History for Needles, CA

Change the Weather History Date:

Friday, June 28, 2013

  Actual Average Record
Temperature  
Mean Temperature 103 °F -  
Max Temperature 120 °F 109 °F 120 °F (2013)
Min Temperature 88 °F 81 °F 67 °F (1991)
Cooling Degree Days 38    
Growing Degree Days 53 (Base 50)    
Moisture  
Dew Point 41 °F    
Average Humidity 12    
Maximum Humidity 21    
Minimum Humidity 5    
Precipitation  
Precipitation 0.00 in - - ()
Sea Level Pressure  
Sea Level Pressure 29.67 in    
Wind  
Wind Speed 4 mph (NNW)    
Max Wind Speed 10 mph    
Max Gust Speed -    
Visibility 10 miles    
Events      
Averages and records for this station are not official NWS values.
T = Trace of Precipitation, MM = Missing Value Source: NWS Daily Summary

Daily Weather History Graph

Daily Weather History Graph

Search for Another Location

Airport:

Trip Planner

Search our weather history database for the weather conditions in past years. The results will help you decide how hot, cold, wet, or windy it might be!

Date:

Astronomy

Jun. 28, 2013 Rise Set
Actual Time 5:27 AM PDT 7:55 PM PDT
Civil Twilight 4:58 AM PDT 8:25 PM PDT
Nautical Twilight 4:21 AM PDT 9:01 PM PDT
Astronomical Twilight 3:41 AM PDT 9:41 PM PDT
Moon 11:43 PM PDT 11:24 AM PDT
Length of Visible Light 15h 27m
Length of Day
14h 28m
Waning Gibbous, 65% of the Moon is Illuminated
Jun 28
Waning Gibbous
Jun 29
Last Quarter
Jul 8
New
Jul 15
First Quarter
Jul 22
Full

Hourly Weather History & Observations

Time (PDT) Temp. Dew Point Humidity Pressure Visibility Wind Dir Wind Speed Gust Speed Precip Events Conditions
12:56 AM 97.0 °F 44.1 °F 16% 29.74 in 10.0 mi WSW 6.9 mph - N/A   Clear
1:56 AM 95.0 °F 43.0 °F 17% 29.73 in 10.0 mi Calm Calm - N/A   Clear
2:56 AM 91.0 °F 43.0 °F 19% 29.73 in 10.0 mi WNW 4.6 mph - N/A   Clear
3:56 AM 90.0 °F 44.1 °F 20% 29.73 in 10.0 mi Variable 3.5 mph - N/A   Clear
4:56 AM 89.1 °F 44.1 °F 21% 29.74 in 10.0 mi West 3.5 mph - N/A   Clear
5:56 AM 88.0 °F 43.0 °F 21% 29.75 in 10.0 mi Calm Calm - N/A   Clear
6:56 AM 91.0 °F 43.0 °F 19% 29.76 in 10.0 mi North 4.6 mph - N/A   Clear
7:56 AM 95.0 °F 43.0 °F 17% 29.77 in 10.0 mi North 3.5 mph - N/A   Clear
8:56 AM 99.0 °F 44.1 °F 15% 29.77 in 10.0 mi Calm Calm - N/A   Clear
9:56 AM 102.0 °F 46.0 °F 15% 29.76 in 10.0 mi East 3.5 mph - N/A   Clear
10:56 AM 107.1 °F 46.0 °F 13% 29.74 in 10.0 mi ENE 3.5 mph - N/A   Clear
11:56 AM 109.9 °F 48.0 °F 13% 29.72 in 10.0 mi Variable 3.5 mph - N/A   Clear
12:56 PM 115.0 °F 45.0 °F 10% 29.69 in 10.0 mi Variable 3.5 mph - N/A   Clear
1:56 PM 116.1 °F 43.0 °F 9% 29.65 in 10.0 mi ESE 4.6 mph - N/A   Clear
2:56 PM 118.0 °F 39.0 °F 7% 29.61 in 10.0 mi Calm Calm - N/A   Partly Cloudy
3:56 PM 118.9 °F 35.1 °F 6% 29.58 in 10.0 mi Variable 6.9 mph - N/A   Clear
4:56 PM 118.9 °F 32.0 °F 5% 29.56 in 10.0 mi Calm Calm - N/A   Partly Cloudy
5:56 PM 118.0 °F 39.0 °F 7% 29.55 in 10.0 mi East 4.6 mph - N/A   Partly Cloudy
6:56 PM 118.0 °F 36.0 °F 6% 29.56 in 10.0 mi East 3.5 mph - N/A   Partly Cloudy
7:56 PM 113.0 °F 36.0 °F 7% 29.57 in 10.0 mi Calm Calm - N/A   Partly Cloudy
8:56 PM 109.0 °F 34.0 °F 8% 29.58 in 10.0 mi West 4.6 mph - N/A   Clear
9:56 PM 109.9 °F 39.0 °F 9% 29.60 in 10.0 mi Calm Calm - N/A   Clear
10:56 PM 105.1 °F 37.0 °F 10% 29.59 in 10.0 mi WNW 9.2 mph - N/A   Clear
11:56 PM 105.1 °F 35.1 °F 9% 29.58 in 10.0 mi West 10.4 mph - N/A   Clear